Location: Laterina
(43.5167°N, 11.7167°E)
Time: 16:23:05
(UTC+00:00)

Meteor 1-12 Rocket - Pass Details

Date: 24 September 2020
Orbit: 854 x 927 km, 81.2° (Epoch: 25 October)

Event Time Altitude Azimuth Distance (km) Brightness Sun altitude
Rises 18:04:54 0° 190° (S) 3,524 7.4 -11.4°
Reaches altitude 10° 18:07:23 10° 191° (S) 2,577 6.7 -11.9°
Maximum altitude 18:13:16 84° 280° (W) 903 4.4 -12.9°
Drops below altitude 10° 18:19:05 10° 9° (N) 2,545 6.7 -13.9°
Sets 18:21:31 0° 10° (N) 3,477 7.4 -14.4°
